Flag for Cuba Weather past 2 weeks in Holguín, Cuba

Now
93 °F

Partly sunny.


Feels Like: 94 °F
Forecast: 72 / 91 °F
Wind: 7 mph from Northeast

Location: Holguin Civ / Mil

Current Time: Apr 25, 2015 at 2:58:15 PM

Latest Report: Apr 25, 2015 at 1:51 PM


Visibility: 6 mi

Pressure: 29.89 "Hg

Humidity: 36%

Dew point: 63 °F

Location of HolguínLocation

Historic Weather in Holguín — Graph

°F

Holguín temperature yesterday

Maximum temperature yesterday: 95 °F (at 1:50 PM)
Minimum temperature yesterday: 70 °F (at 4:50 AM)
Average temperature yesterday: 82 °F

Past Weeks' High & Low Weather Summary

 TemperatureHumidityPressure
High97 °F (Apr 20, 2:50 PM)89% (Apr 19, 7:50 AM)30.09 "Hg (Apr 19, 7:50 AM)
Low70 °F (Apr 14, 5:51 AM)25% (Apr 20, 4:51 PM)29.83 "Hg (Apr 20, 4:51 PM)
Average82 °F60%29.99 "Hg
* Reported Apr 10 12:50 PM — Apr 25 12:51 PM, Holguín, Weather by CustomWeather, © 2015

Note: Actual official high and low records may vary slightly from our data, if they occured in-between our weather recording intervals... More about our weather records

Advertising

Holguín weather history for previous 24 hours

 ConditionsComfort  
Time TempWeatherWind HumidityBarometerVisibility
12:51 PM
Sat, Apr 25
91 °FScattered clouds.8 mph36%29.92 "HgN/A
11:50 AM91 °FScattered clouds.5 mph38%29.95 "HgN/A
10:50 AM90 °FPassing clouds.6 mph43%29.98 "HgN/A
9:50 AM84 °FPassing clouds.6 mph58%29.98 "Hg6 mi
8:50 AM77 °FPassing clouds.6 mph83%29.95 "Hg6 mi
7:51 AM73 °FFog.2 mph89%29.95 "Hg0 mi
6:51 AM70 °FPassing clouds.1 mph88%29.95 "Hg5 mi
5:50 AM72 °FPassing clouds.2 mph83%29.92 "Hg5 mi
4:50 AM72 °FPassing clouds.1 mph83%29.92 "Hg5 mi
3:50 AM72 °FPassing clouds.2 mph83%29.92 "Hg5 mi
2:50 AM73 °FPassing clouds.6 mph83%29.92 "Hg5 mi
1:50 AM73 °FPassing clouds.2 mph78%29.95 "Hg5 mi
12:53 AM75 °FPassing clouds.2 mph78%29.98 "Hg5 mi
11:50 PM
Fri, Apr 24
75 °FPassing clouds.3 mph74%29.98 "Hg6 mi
10:50 PM77 °FPassing clouds.3 mph69%29.98 "Hg6 mi
9:50 PM79 °FPassing clouds.5 mph65%29.98 "Hg6 mi
8:55 PM81 °FPassing clouds.6 mph62%29.95 "Hg6 mi
7:50 PM84 °FPassing clouds.8 mph51%29.92 "Hg6 mi
7:00 PM86 °FPassing clouds.12 mph49%29.92 "Hg6 mi
5:50 PM91 °FPassing clouds.15 mph38%29.89 "HgN/A
4:52 PM93 °FPassing clouds.17 mph39%29.86 "Hg6 mi
3:50 PM95 °FScattered clouds.2 mph36%29.86 "Hg6 mi
2:50 PM95 °FScattered clouds.2 mph30%29.89 "Hg6 mi
Weather by CustomWeather, © 2015

See weather overviewHow to use our weather pages